[[{"header":{"parameterUnit":"m.s-1","parameterCategory":1,"la1":30.2991,"la2":30.254,"lo1":-89.0895,"lo2":-89.0444,"dy":0.0017,"dx":0.0017,"nx":28,"ny":28,"refTime":"2024-02-10T03:00:00:Z","depth":0,"parameterNumber":2,"parameterNumberName":"U-component_of_WINDS"},"data":[0,0,0,0,0,0,0,0,0,0,0,0,0,0,0,0,0,0,0,0,0,0,0,0,0,0,0,0,0,0,0,0,0,0,0,0,0,0,0,0,0,0,0,0,0,0,0,0,0,0,0,0,0,0,0,0,0,0,-2.0499,-2.0499,0,-2.0513,-2.0514,-2.0514,-2.0475,-2.0474,-2.0473,-2.0472,-2.0488,-2.0489,-2.0491,0,0,0,0,0,0,0,0,0,0,0,0,0,-2.0439,-2.044,-2.0499,-2.0499,-2.0499,-2.0513,-2.0514,-2.0514,-2.0475,-2.0474,-2.0472,-2.0471,-2.0487,-2.0489,-2.0491,0,0,0,0,0,0,0,0,0,0,0,0,0,-2.046,-2.044,-2.0498,-2.0481,-2.048,-2.0513,-2.0514,-2.0514,-2.0476,-2.0474,-2.0472,-2.047,-2.0487,-2.0489,-2.0491,-2.0542,0,0,-2.0498,-2.0499,0,0,0,0,0,0,0,0,-2.0459,-2.0462,-2.0484,-2.0483,-2.0481,-2.049,-2.0498,-2.0523,-2.0476,-2.0477,-2.0471,-2.0469,-2.049,-2.0492,-2.0499,-2.0543,-2.0543,-2.0499,-2.05,-2.0501,-2.0502,0,0,0,0,0,0,0,-2.0458,-2.0462,-2.0504,-2.0484,-2.0483,-2.0474,-2.0475,-2.0503,-2.0494,-2.0477,-2.0474,-2.0477,-2.0489,-2.0497,-2.0499,-2.0544,-2.0498,-2.0501,-2.0502,-2.0503,-2.063,-2.0632,0,0,0,0,0,0,-2.0458,-2.0461,-2.0504,-2.0505,-2.0465,-2.0476,-2.0477,-2.0489,-2.0493,-2.0492,-2.0478,-2.0475,-2.0494,-2.0496,-2.0499,-2.0558,-2.0501,-2.0503,-2.0504,-2.0628,-2.063,-2.0632,0,0,0,0,0,0,-2.0457,-2.0462,-2.0503,-2.0482,-2.0487,-2.0479,-2.0493,-2.0491,-2.0498,-2.0494,-2.0492,-2.0487,-2.0492,-2.0496,-2.0532,-2.0559,-2.0504,-2.0506,-2.0626,-2.0629,-2.0631,-2.0678,0,0,0,0,0,0,-2.0455,-2.0462,-2.0481,-2.0483,-2.0488,-2.0535,-2.0495,-2.0492,-2.0502,-2.0498,-2.0502,-2.0501,-2.0491,-2.0528,-2.0534,-2.0561,-2.0508,-2.0623,-2.0627,-2.063,-2.0674,-2.0682,-2.0689,0,0,0,0,0,-2.0453,-2.0493,-2.0482,-2.0487,-2.0511,-2.0536,-2.0539,-2.0526,-2.0504,-2.0523,-2.0521,-2.0501,-2.0555,-2.0532,-2.0538,-2.0566,-2.0621,-2.0626,-2.063,-2.067,-2.068,-2.0689,0,0,0,0,0,0,-2.0495,-2.0493,-2.0481,-2.0522,-2.053,-2.053,-2.0553,-2.0538,-2.0552,-2.0547,-2.0531,-2.0532,-2.0571,-2.0572,-2.0547,-2.0616,-2.0585,-2.059,-2.0613,-2.0622,-2.063,-2.0628,-2.051,0,0,0,0,0,-2.0509,-2.053,-2.0527,-2.0564,-2.0569,-2.0561,-2.0571,-2.0561,-2.0568,-2.0571,-2.0571,-2.0579,-2.0598,-2.061,-2.0628,-2.0674,-2.0675,-2.0697,-2.0704,-2.0711,-2.0715,-2.074,-2.075,-2.0647,-2.0647,-2.0647,0,0,-2.0538,-2.054,-2.0554,-2.0573,-2.0577,-2.0599,-2.0563,-2.0588,-2.0604,-2.0575,-2.0608,-2.0609,-2.0617,-2.0658,-2.0676,-2.066,-2.0744,-2.0716,-2.0721,-2.0723,-2.0746,-2.0755,-2.0764,-2.065,-2.065,-2.0649,0,0,-2.0602,-2.0606,-2.0637,-2.0642,-2.065,-2.0644,-2.0652,-2.0655,-2.0654,-2.0687,-2.0665,-2.0685,-2.0718,-2.0724,-2.0732,-2.08,-2.0782,-2.0806,-2.0845,-2.0869,-2.0877,-2.0884,-2.0908,-2.0916,-2.0811,-2.0811,-2.0811,0,-2.0638,-2.0669,-2.0655,-2.0681,-2.069,-2.0665,-2.0696,-2.0703,-2.0716,-2.0723,-2.0705,-2.0745,-2.0749,-2.0791,-2.0808,-2.0816,-2.0824,-2.0804,-2.0877,-2.0884,-2.089,-2.0912,-2.0921,-2.0814,-2.0814,-2.0813,-2.0813,0,-2.0712,-2.0734,-2.0759,-2.0771,-2.0783,-2.0812,-2.0803,-2.0817,-2.0806,-2.0803,-2.0837,-2.0841,-2.0858,-2.0868,-2.0857,-2.0909,-2.0899,-2.088,-2.0848,-2.0903,-2.0924,-2.0932,-2.0818,-2.0817,-2.0816,-2.0815,0,0,-2.0801,-2.0806,-2.0815,-2.082,-2.0827,-2.0844,-2.0873,-2.0889,-2.0901,-2.0912,-2.0935,-2.0964,-2.0946,-2.0955,-2.0945,-2.0967,-2.102,-2.0945,-2.0945,-2.0957,-2.1076,-2.1089,-2.1099,-2.1009,-2.101,-2.1012,-2.1075,0,-2.0863,-2.091,-2.0899,-2.0946,-2.0966,-2.0944,-2.0968,-2.0975,-2.0973,-2.0991,-2.0989,-2.1009,-2.0985,-2.099,-2.101,-2.1009,-2.1043,-2.1004,-2.1029,-2.103,-2.1026,-2.111,-2.1124,-2.1183,-2.1083,-2.1084,-2.1085,0,-2.0942,-2.0954,-2.1003,-2.1007,-2.1015,-2.1037,-2.1051,-2.1069,-2.1077,-2.1074,-2.1084,-2.1071,-2.1099,-2.1068,-2.1107,-2.1081,-2.1091,-2.1092,-2.1094,-2.1095,-2.106,-2.1111,-2.1202,-2.121,-2.1098,-2.1097,-2.1096,0,-2.1,-2.103,-2.1063,-2.1068,-2.1074,-2.109,-2.1093,-2.1099,-2.111,-2.1123,-2.113,-2.1147,-2.1156,-2.1169,-2.1161,-2.1139,-2.1201,-2.117,-2.1199,-2.1199,-2.1211,-2.121,-2.1303,-2.1221,-2.1221,-2.122,-2.122,0,-2.107,-2.11,-2.1089,-2.1109,-2.1143,-2.1131,-2.1164,-2.1165,-2.1171,-2.1191,-2.1174,-2.1193,-2.1181,-2.12,-2.1194,-2.1227,-2.1231,-2.123,-2.1227,-2.123,-2.123,-2.1235,-2.123,-2.1223,-2.1222,-2.1222,-2.1221,0,-2.114,-2.1134,-2.1168,-2.1171,-2.1172,-2.1197,-2.1199,-2.1218,-2.1216,-2.1241,-2.1247,-2.1243,-2.1264,-2.1257,-2.128,-2.1276,-2.1317,-2.1311,-2.1314,-2.1312,-2.1341,-2.1338,-2.1439,-2.1452,-2.1362,-2.1363,-2.1364,0,-2.1184,-2.1207,-2.1212,-2.1224,-2.1229,-2.1248,-2.1259,-2.1249,-2.1261,-2.1272,-2.129,-2.131,-2.1324,-2.136,-2.1359,-2.1376,-2.1369,-2.1404,-2.1371,-2.1374,-2.1368,-2.1366,-2.1368,-2.1409,-2.141,-2.1411,-2.1412,0,-2.1263,-2.1259,-2.1275,-2.1291,-2.1304,-2.1316,-2.1326,-2.1337,-2.1327,-2.1342,-2.1363,-2.1375,-2.1399,-2.1418,-2.1434,-2.1438,-2.1423,-2.1422,-2.143,-2.1432,-2.1433,-2.1431,-2.133,-2.1419,-2.1419,-2.1418,-2.1418,-2.1417,-2.1321,-2.134,-2.1346,-2.1365,-2.1372,-2.1382,-2.14,-2.1399,-2.1417,-2.1434,-2.1428,-2.1452,-2.146,-2.148,-2.1486,-2.1506,-2.1492,-2.1504,-2.1506,-2.1509,-2.1512,-2.1431,-2.1509,-2.1509,-2.1508,-2.1508,-2.1508,0,-2.1397,-2.1401,-2.1418,-2.1433,-2.1448,-2.1433,-2.1444,-2.1457,-2.1479,-2.1488,-2.1503,-2.1527,-2.1546,-2.1548,-2.1566,-2.1581,-2.1574,-2.1586,-2.1584,-2.1585,-2.1523,-2.1514,-2.159,-2.159,-2.159,-2.159,-2.159,-2.159,-2.1439,-2.147,-2.1467,-2.1502,-2.1505,-2.1528,-2.1535,-2.1545,-2.1552,-2.158,-2.1595,-2.1596,-2.1602,-2.162,-2.1638,-2.1637,-2.1644,-2.1658,-2.1655,-2.1597,-2.1589,-2.1581,-2.1572,-2.166,-2.166,-2.1715,-2.1716,-2.1716]},{"header":{"parameterUnit":"m.s-1","parameterCategory":1,"la1":30.2991,"la2":30.254,"lo1":-89.0895,"lo2":-89.0444,"dy":0.0017,"dx":0.0017,"nx":28,"ny":28,"refTime":"2024-02-10T03:00:00:Z","depth":0,"parameterNumber":3,"parameterNumberName":"V-component_of_WINDS"},"data":[0,0,0,0,0,0,0,0,0,0,0,0,0,0,0,0,0,0,0,0,0,0,0,0,0,0,0,0,0,0,0,0,0,0,0,0,0,0,0,0,0,0,0,0,0,0,0,0,0,0,0,0,0,0,0,0,0,0,2.6654,2.6654,0,2.6701,2.6702,2.6702,2.6733,2.6733,2.6734,2.6734,2.6781,2.6782,2.6783,0,0,0,0,0,0,0,0,0,0,0,0,0,2.6591,2.6592,2.6654,2.6654,2.6655,2.6701,2.6702,2.6702,2.6733,2.6733,2.6734,2.6734,2.6781,2.6782,2.6783,0,0,0,0,0,0,0,0,0,0,0,0,0,2.6626,2.6592,2.6653,2.6676,2.6678,2.6701,2.6702,2.6702,2.6733,2.6733,2.6734,2.6734,2.678,2.6782,2.6784,2.6788,0,0,2.6789,2.6789,0,0,0,0,0,0,0,0,2.6624,2.6629,2.6672,2.6674,2.6677,2.6712,2.6697,2.6731,2.6733,2.6712,2.6734,2.6734,2.6758,2.6761,2.6769,2.679,2.6792,2.6789,2.679,2.679,2.6791,0,0,0,0,0,0,0,2.6622,2.6627,2.6672,2.6672,2.6676,2.6684,2.6689,2.6704,2.6733,2.6714,2.6716,2.6722,2.6759,2.6768,2.6771,2.6793,2.6789,2.679,2.6791,2.6792,2.6823,2.6822,0,0,0,0,0,0,2.6616,2.6625,2.6671,2.6674,2.6651,2.6685,2.6691,2.67,2.6733,2.6738,2.6721,2.6723,2.6765,2.6769,2.6773,2.6782,2.679,2.6792,2.6793,2.6823,2.6823,2.6822,0,0,0,0,0,0,2.6614,2.662,2.6669,2.665,2.6657,2.6686,2.6696,2.6701,2.671,2.6738,2.6743,2.6725,2.6765,2.677,2.6785,2.6784,2.6793,2.6794,2.6823,2.6823,2.6822,2.6799,0,0,0,0,0,0,2.6612,2.6619,2.662,2.665,2.6658,2.6679,2.6696,2.6702,2.6712,2.6715,2.6743,2.6748,2.6766,2.6782,2.6786,2.6786,2.6795,2.6823,2.6823,2.6823,2.68,2.6798,2.6796,0,0,0,0,0,2.661,2.661,2.662,2.6625,2.666,2.6679,2.6684,2.6705,2.6712,2.6714,2.6733,2.6747,2.6783,2.6783,2.6788,2.6789,2.6823,2.6823,2.6823,2.6801,2.6798,2.6796,0,0,0,0,0,0,2.6579,2.6615,2.6625,2.6635,2.6654,2.6685,2.6687,2.6702,2.6718,2.672,2.6746,2.6752,2.6764,2.6778,2.6777,2.6796,2.6805,2.6806,2.6787,2.6785,2.6783,2.678,2.6797,0,0,0,0,0,2.6573,2.6586,2.6617,2.6623,2.6632,2.6658,2.6667,2.6683,2.6703,2.6711,2.6731,2.675,2.6766,2.6776,2.6792,2.6802,2.681,2.6805,2.6803,2.6802,2.6802,2.6812,2.6811,2.6821,2.6821,2.6821,0,0,2.6562,2.6583,2.6589,2.6617,2.6633,2.6647,2.6664,2.6677,2.6688,2.6713,2.6728,2.6744,2.6767,2.678,2.6787,2.6792,2.6801,2.6801,2.68,2.6801,2.6811,2.681,2.6809,2.6821,2.6821,2.6821,0,0,2.6548,2.6564,2.6572,2.6589,2.6614,2.6633,2.6635,2.6664,2.6675,2.6691,2.6711,2.6725,2.6751,2.6768,2.678,2.6776,2.679,2.6781,2.6771,2.678,2.6779,2.6779,2.678,2.6779,2.6781,2.6781,2.6781,0,2.653,2.6551,2.6575,2.6588,2.6601,2.6625,2.6635,2.6649,2.6678,2.6687,2.6693,2.6729,2.6746,2.6765,2.6765,2.6773,2.6777,2.6778,2.6778,2.6777,2.6777,2.6778,2.6778,2.678,2.678,2.678,2.678,0,2.6529,2.6544,2.6548,2.6577,2.659,2.6601,2.6627,2.6638,2.6653,2.6671,2.6689,2.6711,2.6733,2.6739,2.6752,2.676,2.6763,2.6773,2.6782,2.6775,2.6776,2.6776,2.6778,2.6779,2.6779,2.6779,0,0,2.6496,2.654,2.6541,2.6556,2.6587,2.6599,2.6612,2.6636,2.6645,2.6665,2.6678,2.6702,2.6712,2.6726,2.6742,2.6749,2.6748,2.6759,2.676,2.6757,2.6761,2.6755,2.6755,2.6758,2.6758,2.6758,2.676,0,2.6488,2.6513,2.6536,2.6553,2.6569,2.6594,2.6606,2.6626,2.6644,2.666,2.668,2.6697,2.6708,2.6717,2.6726,2.6747,2.675,2.6747,2.6771,2.6772,2.6765,2.6755,2.6747,2.6748,2.6761,2.6761,2.6761,0,2.6481,2.6502,2.6521,2.6554,2.6561,2.6571,2.6596,2.6611,2.6636,2.6649,2.6666,2.6684,2.67,2.6708,2.6733,2.673,2.6742,2.6754,2.6754,2.6758,2.6766,2.676,2.6749,2.6749,2.6761,2.6761,2.6761,0,2.6458,2.649,2.6507,2.6518,2.6556,2.6563,2.6579,2.6605,2.6619,2.664,2.665,2.6673,2.6685,2.6703,2.6728,2.6731,2.675,2.6759,2.6762,2.6762,2.6765,2.6765,2.6757,2.6771,2.6771,2.6771,2.6771,0,2.6447,2.6459,2.6497,2.6507,2.6521,2.6549,2.6562,2.658,2.6603,2.6618,2.6641,2.6655,2.6685,2.6703,2.6722,2.6741,2.6746,2.6757,2.6762,2.6756,2.6755,2.6764,2.6765,2.6771,2.6771,2.6771,2.6771,0,2.6423,2.6449,2.6469,2.6504,2.6514,2.6523,2.6553,2.6565,2.6585,2.6604,2.661,2.6641,2.6663,2.6689,2.672,2.6733,2.675,2.6757,2.6742,2.6745,2.6747,2.6747,2.6746,2.6748,2.6759,2.6759,2.6759,0,2.6415,2.6425,2.6462,2.6474,2.649,2.6509,2.6524,2.6551,2.6566,2.6597,2.6605,2.663,2.6651,2.6686,2.6711,2.6735,2.6744,2.6742,2.6747,2.6742,2.6746,2.6745,2.6747,2.674,2.674,2.674,2.674,0,2.64,2.6413,2.6433,2.6459,2.6476,2.6497,2.6519,2.6528,2.6561,2.6576,2.66,2.6616,2.6649,2.6673,2.6701,2.6719,2.6735,2.6738,2.674,2.6734,2.6726,2.6732,2.6739,2.6738,2.6738,2.6738,2.6738,2.6738,2.6385,2.6396,2.6424,2.6447,2.6467,2.6488,2.6501,2.6524,2.6544,2.6574,2.6589,2.6613,2.6641,2.668,2.6697,2.6717,2.6722,2.6725,2.6726,2.6727,2.6726,2.6722,2.6722,2.6722,2.6722,2.6722,2.6722,0,2.6372,2.6392,2.6413,2.6444,2.6463,2.6477,2.6503,2.6518,2.6539,2.6563,2.6585,2.6613,2.6638,2.6667,2.6693,2.6704,2.6712,2.671,2.671,2.6714,2.6718,2.6715,2.6703,2.6703,2.6703,2.6703,2.6703,2.6703,2.6368,2.6387,2.6404,2.6435,2.6455,2.648,2.6494,2.6514,2.6534,2.6565,2.6586,2.6605,2.6632,2.6662,2.6685,2.6693,2.6703,2.6699,2.6709,2.6712,2.6714,2.6715,2.6712,2.67,2.67,2.6703,2.6703,2.6703]}]]